Regional Weather Roundup
Issued by NWS

Home | Current Version | Previous Version | Text Only | Print | Product List | Glossary Off
Versions: 1 2 3 4 5 6 7 8 9 10 11 12 13 14 15 16 17 18 19 20 21 22 23 24 25 26 27

000
ASUS45 KBOU 231607
RWRCO

WEATHER ROUNDUP FOR COLORADO
NATIONAL WEATHER SERVICE DENVER/BOULDER CO
1000 AM MDT TUE MAY 23 2017

NOTE: "FAIR" INDICATES FEW OR NO CLOUDS BELOW 12000 FEET WITH NO
SIGNIFICANT WEATHER AND/OR OBSTRUCTIONS TO VISIBILITY.

COZ001>005-013-030-031-231700-
...NORTHWEST COLORADO...

CITY           SKY/WX    TMP DP  RH WIND       PRES   REMARKS
CRAIG          PTSUNNY   44  33  65 N3        30.34F
HAYDEN         CLOUDY    41  32  70 N3        30.35S
MEEKER         FAIR      45  34  65 CALM      30.33F
RABBIT EARS PA CLOUDY    28  28 100 NW6       30.36S FOG     WCI  22
STEAMBOAT SPGS CLOUDY    39  32  77 S3        30.34F
WALDEN           N/A     37  30  75 CALM      30.39R
$$

COZ006>008-011-231700-
...WEST CENTRAL VALLEYS...

CITY           SKY/WX    TMP DP  RH WIND       PRES   REMARKS
GRAND JUNCTION FAIR      59  33  37 SW9       30.28F
MONTROSE       FAIR      52  37  56 NW3       30.31S
EAGLE          PTSUNNY   46  30  53 CALM      30.35F
RIFLE          FAIR      53  30  41 CALM      30.29F
DELTA          FAIR      58  35  41 SW3       30.28F
NUCLA          FAIR      59  25  27 NE6       30.31F
$$

COZ017>023-064>068-231700-
...SOUTHWEST COLORADO...

CITY           SKY/WX    TMP DP  RH WIND       PRES   REMARKS
DURANGO        FAIR      60  25  26 E8        30.18S
CORTEZ         FAIR      63  23  21 N15G21    30.22S
PAGOSA SPRINGS FAIR      56   6  13 N10G16    30.23S
TELLURIDE      FAIR      44  20  38 W13G18    30.34S
WOLF CREEK PAS FAIR      32  10  40 NW9G21    30.40R WCI  24
$$

COZ009-010-012-014-032>034-037-058>063-231700-
...CENTRAL COLORADO...

CITY           SKY/WX    TMP DP  RH WIND       PRES   REMARKS
ASPEN          FAIR      45  30  55 VRB6      30.31F
BUENA VISTA    FAIR      46  22  38 N25       30.26F
COPPER MTN     PTSUNNY   27  21  80 MISG      30.36S
BERTHOUD PASS  CLOUDY    18   9  68 NW16G43   30.32R WCI   3
COTTONWOOD PAS FAIR      41  30  65 CALM      30.31F
GUNNISON       FAIR      46  26  45 VRB3      30.29
KREMMLING      FAIR      46  32  57 W6        30.32F
LEADVILLE      FAIR      32  20  61 N17G26    30.31F WCI  21
MONARCH PASS   FAIR      28  16  59 NW9G17    30.46S WCI  20
SALIDA         FAIR      49  25  39 N15G22    30.35F
SUNLIGHT       FAIR      30  19  64 N3        30.42S
WILKERSON PASS PTSUNNY   30  21  69 CALM      30.35F
$$

COZ069>075-231700-
...SAN LUIS VALLEY/SANGRE DE CRISTO MOUNTAINS...

CITY           SKY/WX    TMP DP  RH WIND       PRES   REMARKS
ALAMOSA        FAIR      51  24  34 N13G23    30.24F
DEL NORTE      FAIR      48  27  43 SW5       30.26F
LA VETA PASS   FAIR      34  30  86 NW6       30.42S WCI  29
SAGUACHE       FAIR      48  27  43 N12G18    30.27F
$$

COZ035-036-038>040-231700-
...NORTHERN COLORADO FRONT RANGE...

CITY           SKY/WX    TMP DP  RH WIND       PRES   REMARKS
DENVER INTL AP FAIR      54  33  45 N20G26    30.21F
DMNS CITY PARK   N/A     56  29  35 N12G23    30.21S
AURORA         MOSUNNY   53  31  42 N22G30    30.22F
FRONT RANGE AP PTSUNNY   54  37  54 N14G21    30.22F
ERIE MUNI ARPT FAIR      56  30  36 N13G21    30.20F
BOULDER MUN AP FAIR      55  32  41 NE6       30.20F
CENTENNIAL     PTSUNNY   51  29  42 N17G24    30.22F
BROOMFIELD     MOSUNNY   55  32  41 N9        30.23S
FORT COLLINS   FAIR      58  30  34 N23G29    30.20F
LONGMONT       PTSUNNY   58  30  34 N15G22    30.21F
$$

COZ041-046-047-076>085-087-088-231700-
...PIKES PEAK/PALMER DIVIDE AND SOUTHERN FOOTHILLS...

CITY           SKY/WX    TMP DP  RH WIND       PRES   REMARKS
COLO. SPRINGS  FAIR      51  24  34 NW21G32   30.24F
A. F. ACADEMY  FAIR      47  24  39 N20       30.22F
SCHRIEVER AFB  PTSUNNY   50  27  40 NW20G28   30.23F
CHEYENNE MTN   PTSUNNY   46  20  35 N17G25    30.18
ELLICOTT       CLOUDY   N/A N/A N/A N20G26    30.21F
FALCON         PTSUNNY   46  25  44 N12G23    30.24F
FORT CARSON    PTSUNNY   55  28  35 N14G26    30.22F
LIMON          CLOUDY    51  37  58 N25       30.19F
MONUMENT HILL  FAIR      43  30  61 N17G24    30.25F
CANON CITY     NOT AVBL
WALSENBURG     NOT AVBL
TRINIDAD       FAIR      52  36  54 NW13G18   30.23F
$$

COZ042>045-048>051-090-091-231700-
...NORTHEAST COLORADO...

CITY           SKY/WX    TMP DP  RH WIND       PRES   REMARKS
GREELEY ARPT   CLOUDY    52  39  61 N13       30.21F
AKRON          CLOUDY    52  36  54 N22G29    30.17F
BURLINGTON     FAIR      55  40  56 N20G28    30.13F
WRAY           FAIR      61  36  39 N22G28    30.13S
YUMA           PTSUNNY   54  37  54 NW21G26   30.15S
STERLING       PTSUNNY   57  37  47 N20G31    30.15F
HOLYOKE        NOT AVBL
FORT MORGAN    PTSUNNY   56  34  43 NW17      30.19F
$$

COZ086-089-092>099-231700-
...SOUTHEAST COLORADO...

CITY           SKY/WX    TMP DP  RH WIND       PRES   REMARKS
PUEBLO         FAIR      59  31  34 N17G23    30.20F
LA JUNTA       FAIR      60  36  40 N18       30.18F
LAMAR          PTSUNNY   58  38  47 NW17G26   30.14F
SPRINGFIELD      N/A     55  37  50 N24G32    30.15F
$$




USA.gov is the U.S. government's official web portal to all federal, state and local government web resources and services.